Notices

What's New in latest Release from April 7th, 2021:

- Updated Glossary, including Speed of Maximum Gust, and Total Hourly Precipitation

- Updated national and regional climate services offices contacts and prices information

- Addition of station inventory lists for 1981-2010, 1971-2000, and 1961-1990 Normals.

If you haven't already, please take our survey and provide feedback about our website: https://eccc.sondage-survey.ca/f/LanguageSelection.aspx?s=442ca660-fcf1-47c0-95a9-59707d6fd709

Hourly Data Report for April 26, 2018

KENORA A
ONTARIO
Current Station Operator: NAVCAN

49°47'18.000" N
94°21'47.000" W
409.70 m
6034076
71850
YQK

Download Data

Hourly Data (April 2018)
Hourly Data Report for April 26, 2018
TIME
LST
Temp Definition
°C
Dew Point Definition
°C
Rel Hum Definition
%
Precip. Amount Definition
mm

Wind Dir Definition
10's deg

Wind Spd Definition
km/h
Visibility Definition
km
Stn Press Definition
kPa
Hmdx Definition


Wind Chill Definition


Weather Definition


00:00 7.6 1.9 67   36 28 24.1 95.97     Cloudy
01:00 6.6 1.6 70   36 24 24.1 96.05     LegendNANA
02:00 6.0 1.5 73   36 13 24.1 96.08     LegendNANA
03:00 5.0 1.4 78   34 13 24.1 96.14     Mostly Cloudy
04:00 4.4 1.8 83   33 14 24.1 96.22     LegendNANA
05:00 3.2 1.8 90   33 12 24.1 96.28     LegendNANA
06:00 3.6 2.0 89   34 14 24.1 96.38     Cloudy
07:00 3.5 1.1 85   35 19 24.1 96.47     LegendNANA
08:00 3.2 0.2 80   35 17 32.2 96.54     LegendNANA
09:00 5.1 -0.6 67   1 16 32.2 96.55     Mainly Clear
10:00 4.9 -1.6 62   32 22 32.2 96.58     LegendNANA
11:00 5.7 -2.9 54   34 24 32.2 96.64     LegendNANA
12:00 7.5 -2.2 50   34 19 32.2 96.62     Mostly Cloudy
13:00 7.9 -4.6 41   33 19 32.2 96.60     LegendNANA
14:00 8.5 -4.3 40   32 18 32.2 96.56     LegendNANA
15:00 9.4 -5.5 34   32 21 32.2 96.51     Mainly Clear
16:00 10.2 -5.2 33   36 19 32.2 96.46     LegendNANA
17:00 9.9 -5.7 33   30 5 32.2 96.40     LegendNANA
18:00 9.9 -10.5 23   25 8 32.2 96.33     Mostly Cloudy
19:00 8.7 -8.6 29   22 7 24.1 96.29     LegendNANA
20:00 8.8 -11.1 23   36 2 24.1 96.24     LegendNANA
21:00 6.6 -9.4 31   18 13 24.1 96.16     Mostly Cloudy
22:00 5.5 -5.1 46   19 10 24.1 96.14     LegendNANA
23:00 4.8 -2.7 58   14 9 24.1 96.06     LegendNANA

Notes on Data Quality.

Legend

  • E = Estimated
  • M = Missing
  • NA = Not Available*
  • [empty] = Indicates an unobserved value
Date modified: